Location: Forst
(46.9333°N, 15.4333°E)
Time: 14:33:05
(UTC+00:00)

Lacrosse 4 Rocket - Pass Details

Date: 01 December 2020
Orbit: 537 x 621 km, 68.0° (Epoch: 27 January)

Event Time Altitude Azimuth Distance (km) Brightness Sun altitude
Rises 17:43:58 0° 196° (SSW) 2,680 5.1 -25.3°
Reaches altitude 10° 17:46:11 10° 191° (S) 1,798 4.1 -25.7°
Enters shadow 17:47:00 16° 187° (S) 1,482 3.6 -25.8°
